Pagrindinis puslapis
METAR-TAF:

METAR-TAF

Oro uostai :

Los Alamos, Naujoji Meksika, Jungtinės Amerikos Valstijos

platuma: 35-53N, ilguma: 106-17W, Aukštis: 2179 m

Dabartinis oras

Ataskaita buvo paskelbta 26 minutes, ne 12:15 UTC
Ramus vėjas
Temperatūra 12°C
Drėgmė 24%
Slėgis 1026 hPa
Matomumas: 16.1 km
Giedras dangus

METAR: KLAM 231215Z AUTO 00000KT 10SM CLR 12/M08 A3030 RMK AO2 T01211076

Laikas: 06:41 (12:41 UTC)


TAF: trūkstamas

Orai ataskaitas ir orų prognozės (METAR, TAF).

turimą stotys yra geltonos ir raudonos taškus žemėlapyje.

Perkelti pele per norėdami pamatyti stoties vardą.

Tada spustelėkite, norėdami matyti oro stebėjimo ir prognozės.

Norėdami pakeisti žemėlapį: spustelėkite ant žalios mygtukų su juodo kryžiaus žemyn,; žalią mygtuką su brūkšneliu, jei norite nutolinti; arba žalių rodyklių gretimoms žemėlapius.


METAR-TAF: